Location: Unspecified
(0.0000°N, 0.0000°E)
Time: 19:03:10
(UTC+00:00)

Altair - All Passes

Search period start: 21 February 2018 00:00
Search period end: 03 March 2018 00:00
Orbit: 1501 x 1682 km, 47.2° (Epoch: 20 February)

Date Brightness Start Highest point End Pass type
(mag) Time Alt. Az. Time Alt. Az. Time Alt. Az.
21 Feb - 03:51:49 10° S 03:59:45 32° SE 04:07:45 10° ENE visible
21 Feb - 05:55:23 10° WSW 06:04:13 51° NW 06:13:19 10° NNE daylight
21 Feb - 14:40:09 10° NNE 14:44:34 13° NE 14:48:56 10° ENE daylight
21 Feb - 16:39:47 10° NNW 16:49:53 72° NE 16:59:47 10° SE daylight
21 Feb - 18:46:58 10° W 18:54:39 25° SW 19:02:13 10° S visible
22 Feb - 03:27:00 10° S 03:34:35 29° SE 03:42:11 10° ENE visible
22 Feb - 05:30:06 10° SW 05:39:04 58° NW 05:48:17 10° NNE visible
22 Feb - 14:16:20 10° NNE 14:19:14 11° NE 14:22:06 10° ENE daylight
22 Feb - 16:14:40 10° NNW 16:24:42 65° NE 16:34:32 10° SE daylight
22 Feb - 18:21:15 10° WNW 18:29:25 28° SW 18:37:27 10° S visible
23 Feb - 03:02:15 10° S 03:09:24 25° SE 03:16:34 10° E visible
23 Feb - 05:04:52 10° SW 05:13:55 65° NW 05:23:13 10° NNE visible
23 Feb - 07:17:53 10° NW 07:19:13 10° NW 07:20:32 10° NW daylight
23 Feb - 15:49:35 10° NNW 15:59:31 58° NE 16:09:15 10° SE daylight
23 Feb - 17:55:37 10° WNW 18:04:12 32° SW 18:12:40 10° S daylight
24 Feb - 02:37:33 10° S 02:44:13 22° SE 02:50:52 10° E visible
24 Feb - 04:39:39 10° SW 04:48:48 72° NW 04:58:08 10° NNE visible
24 Feb - 06:50:32 10° WNW 06:53:55 12° NW 06:57:21 10° NNW daylight
24 Feb - 15:24:32 10° NNW 15:34:18 52° NE 15:43:56 10° ESE daylight
24 Feb - 17:30:03 10° WNW 17:38:59 36° SW 17:47:47 10° SSE daylight
25 Feb - 02:12:56 10° S 02:19:01 19° SE 02:25:04 10° E visible
25 Feb - 04:14:29 10° SW 04:23:39 81° NW 04:33:01 10° NE visible
25 Feb - 06:24:07 10° WNW 06:28:39 14° NW 06:33:14 10° NNW daylight
25 Feb - 14:59:32 10° NNW 15:09:06 46° NE 15:18:33 10° ESE daylight
25 Feb - 17:04:33 10° WNW 17:13:47 40° SW 17:22:53 10° SSE daylight
26 Feb - 01:48:25 10° S 01:53:48 17° SE 01:59:08 10° E visible
26 Feb - 03:49:20 10° SW 03:58:32 89° NW 04:07:52 10° NE visible
26 Feb - 05:58:01 10° W 06:03:23 17° NW 06:08:51 10° N daylight
26 Feb - 14:34:33 10° NNW 14:43:54 41° NE 14:53:08 10° ESE daylight
26 Feb - 16:39:06 10° WNW 16:48:35 45° SW 16:57:57 10° SSE daylight
27 Feb - 01:24:04 10° SSE 01:28:34 14° SE 01:33:01 10° ESE visible
27 Feb - 03:24:13 10° SW 03:33:24 82° SE 03:42:42 10° NE visible
27 Feb - 05:32:07 10° W 05:38:09 19° NW 05:44:18 10° N visible
27 Feb - 14:09:36 10° NNW 14:18:41 37° NE 14:27:40 10° ESE daylight
27 Feb - 16:13:41 10° WNW 16:23:23 51° SW 16:32:59 10° SSE daylight
28 Feb - 01:00:01 10° SSE 01:03:18 12° SE 01:06:34 10° ESE night (unlit)
28 Feb - 02:59:08 10° SSW 03:08:17 74° SE 03:17:30 10° NE visible
28 Feb - 05:06:20 10° W 05:12:56 22° NW 05:19:39 10° N visible
28 Feb - 13:44:42 10° NNW 13:53:27 33° NE 14:02:09 10° ESE daylight
28 Feb - 15:48:20 10° NW 15:58:11 57° SW 16:07:58 10° SSE daylight
01 Mar - 00:37:10 10° SE 00:38:02 10° SE 00:38:53 10° SE night (unlit)
01 Mar - 02:34:04 10° SSW 02:43:09 66° SE 02:52:17 10° NE visible
01 Mar - 04:40:40 10° W 04:47:44 25° NW 04:54:55 10° N visible
01 Mar - 13:19:51 10° N 13:28:13 29° NE 13:36:34 10° ESE daylight
01 Mar - 15:23:00 10° NW 15:33:00 63° SW 15:42:55 10° SSE daylight
01 Mar - 17:36:15 10° WSW 17:38:24 11° SW 17:40:33 10° SSW daylight
02 Mar - 02:09:02 10° SSW 02:18:02 58° SE 02:27:01 10° NE visible
02 Mar - 04:15:04 10° WSW 04:22:32 28° NW 04:30:08 10° N visible
02 Mar - 12:55:03 10° N 13:02:59 26° NE 13:10:54 10° E daylight
02 Mar - 14:57:43 10° NW 15:07:49 70° SW 15:17:50 10° SSE daylight
02 Mar - 17:09:03 10° WSW 17:13:04 13° SW 17:17:06 10° SSW daylight
